Regional Weather Roundup
Issued by NWS Little Rock, AR

Home | Current Version | Previous Version | Graphics & Text | Print | Product List | Glossary On
Versions: 1 2 3 4 5 6 7 8 9 10 11 12 13 14 15 16 17 18 19 20 21 22 23 24 25 26 27 28 29 30 31 32 33 34 35 36 37 38 39 40 41 42 43 44 45 46 47 48 49 50
875
ASUS44 KLZK 190805
RWRLZK

WEATHER ROUNDUP FOR ARKANSAS
NATIONAL WEATHER SERVICE LITTLE ROCK AR
300 AM CDT THU APR 19 2018

NOTE: "FAIR" INDICATES FEW OR NO CLOUDS BELOW 12,000 FEET WITH NO
SIGNIFICANT WEATHER AND/OR OBSTRUCTIONS TO VISIBILITY.

ARZ001-003-010-029-190900-
NORTHWEST ARKANSAS

CITY           SKY/WX    TMP DP  RH WIND       PRES   REMARKS
FAYETTEVILLE   CLEAR     40  29  64 N3        30.23R
FORT SMITH     CLEAR     50  31  48 NW7       30.24R
HARRISON       CLEAR     40  30  67 NW9       30.20R
BENTONVILLE    CLEAR     41  28  60 N10       30.26R
ROGERS         CLEAR     39  27  62 N9        30.25R
SILOAM SPGS    CLEAR     39  30  70 N13       30.26R
HIGHFILL       CLEAR     41  28  60 N16       30.25R
$$

ARZ004-005-016-190900-
NORTH CENTRAL ARKANSAS

CITY           SKY/WX    TMP DP  RH WIND       PRES   REMARKS
BATESVILLE     CLEAR     45  28  51 NW7       30.18R
FLIPPIN        CLEAR     44  29  55 NW20G26   30.21R
MTN HOME       CLEAR     42  30  62 N9G17     30.18R
$$

ARZ040-041-190900-
WEST CENTRAL ARKANSAS

CITY           SKY/WX    TMP DP  RH WIND       PRES   REMARKS
MENA           CLEAR     52  30  43 NW6       30.21S
MOUNT IDA      CLEAR     50  32  50 NW3       30.17S
$$

ARZ009-017-025-026-028-190900-
NORTHEAST ARKANSAS

CITY           SKY/WX    TMP DP  RH WIND       PRES   REMARKS
CORNING        FAIR      43  32  65 NW6       30.15S
JONESBORO      FAIR      44  31  60 NW7       30.15F
NEWPORT        FAIR      45  30  55 NW9       30.18R
WALNUT RIDGE   FAIR      42  30  62 NW8       30.16S
BLYTHEVILLE    FAIR      44  30  57 N17       30.14R
$$

ARZ022-023-033-042-044-190900-
CENTRAL ARKANSAS

CITY           SKY/WX    TMP DP  RH WIND       PRES   REMARKS
LITTLE ROCK    CLEAR     49  31  49 N14       30.19R
N LITTLE ROCK    N/A     48  32  54 CALM      30.15R
JACKSONVILLE   CLEAR     51  29  43 N7G21     30.18R
CONWAY           N/A     48  34  57 N8        30.18R
SEARCY         FAIR      48  31  51 N7        30.18R
HOT SPRINGS    CLEAR     54  29  38 NW6       30.19R
RUSSELLVILLE   CLEAR     50  29  44 NW10      30.20R
CLINTON        FAIR      46  28  49 NW6       30.19R
$$

ARZ036-190900-
EAST ARKANSAS

CITY           SKY/WX    TMP DP  RH WIND       PRES   REMARKS
WEST MEMPHIS   FAIR      49  34  56 N10G20    30.14R
$$

ARZ050-053-066-070-073-190900-
SOUTHWEST ARKANSAS

CITY           SKY/WX    TMP DP  RH WIND       PRES   REMARKS
ARKADELPHIA    FAIR      56  33  42 N16G25    30.18R
CAMDEN         FAIR      55  34  44 N5        30.15R
TEXARKANA      CLEAR     55  36  48 N8        30.19R
EL DORADO      FAIR      54  40  59 NW10      30.15R
DE QUEEN       CLEAR     53  33  46 N3        30.19S
$$

ARZ056-057-069-190900-
SOUTHEAST ARKANSAS

CITY           SKY/WX    TMP DP  RH WIND       PRES   REMARKS
PINE BLUFF     FAIR      53  33  46 N15G30    30.16R
STUTTGART      FAIR      52  33  48 N23G29    30.16R
MONTICELLO     FAIR      57  38  48 N3        30.12R

$$






USA.gov is the U.S. government's official web portal to all federal, state and local government web resources and services.